Location: Newark
(49.2994°N, 22.5236°E)
Time: 13:10:21
(UTC+00:00)

N. Korean satellite - Visible Passes

Search period start: 27 September 2020 00:00
Search period end: 07 October 2020 00:00
Orbit: 455 x 503 km, 97.2° (Epoch: 26 September)

Date Brightness Start Highest point End Pass type
(mag) Time Alt. Az. Time Alt. Az. Time Alt. Az.
27 Sep 10.2 02:55:27 10° ENE 02:56:38 11° E 02:57:49 10° ESE visible
29 Sep 8.8 03:35:01 10° NNE 03:38:17 30° E 03:41:29 10° SSE visible
30 Sep 9.8 03:09:42 10° NE 03:12:02 16° E 03:14:22 10° SE visible
02 Oct 7.9 03:50:04 10° NNE 03:53:34 45° E 03:56:58 10° S visible
03 Oct 9.3 03:24:26 10° NE 03:27:22 23° E 03:30:15 10° SSE visible
04 Oct 10.1 02:59:32 10° ENE 03:01:05 12° E 03:02:38 10° ESE visible
06 Oct 8.5 03:39:21 10° NNE 03:42:39 34° E 03:45:52 10° SSE visible
